DELTA 1 R/B, 1433

Orbit data source: Space-Track

DELTA 1 R/B, 1433 is space debris in SSO originally from a launch on Fri, 02 Jul 1965 UTC launched from the Air Force Eastern Test Range (AFETR). Debris objects in space refer to the collection of defunct objects orbiting the Earth. Examples of debris include non-operational satellites, rocket bodies, and fragments generated from explosions, collisions, or faulty payload assembly.

Loading next visibility...
Identifier
1433, 1965-051B
Orbit
SSO
Country
Flag of USUS
Related business
Manufacturer
ABL
Mission
Spacecraft
Bus & Motor
ALTAIR, Unknown motor
Mass
60 kg wet, 60 kg dry
Launch date (UTC)
1965-07-02 (61 years ago)
Launch vehicle
Unknown
Launch site
Air Force Eastern Test Range (AFETR)
Object type
Payload
Rocket body
Debris
Shape & HBR
Unknown
Radar Cross Section
Medium (>0.1 m² and <1 m²)

Expand to show TLE details & history
Last TLE update: 8 hours ago

TLE from 8 hours ago
0 DELTA 1 R/B
1 01433U 65051B   26144.89447422  .00000592  00000-0  12557-3 0  9994
2 01433  98.5722 303.4147 0038371 348.2927  11.7377 14.62647858191429
Epoch: 2026-05-24T21:28Z
TLE epoch observation values (Epoch: 2026-05-24T21:28:02.572Z)
Latitude
-0.00006°
Longitude
98.91392°
Altitude
661.079 km
Speed
7.541 km/s
True Right ascension
20h 13m 39s
True Declination
0° 00' 00"
Sunlit
Object was in full shadow at epoch
Visualization orbit readout
Latitude
Unknown
Longitude
Unknown
Altitude
Unknown
Speed
Unknown
Apparent Right ascension
Unknown
Apparent Declination
Unknown
Sunlit
N/A
Visualization observer readout
Local Sidereal Time
14:39:49
Azimuth
Unknown
Elevation
Unknown
Doppler factor
Unknown
Orbital elements
Apogee altitude
708.822 km
Perigee altitude
654.643 km
Semi-major axis
7,059.869 km
Eccentricity
0.00384
Inclination
98.5722°
RAAN
303.4147°
Arg. of periapsis
348.2927°
True anomaly
11.82757°
Mean anomaly
11.7377°
Eccentric anomaly
11.78259°
Mean motion
3.65888 °/min
Orbital period
98.39 mins
BSTAR
0.00012557
Loading maneuver chart data...
Computing Atmospheric mass density...
Loading historical data...
Loading historical data...
Loading historical data...
Loading historical data...
Loading historical data...
Loading historical data...
Loading historical data...
Other satellites on launch #51 in the year 1965 (1965-07-02 UTC)

Documentation

Showing up to 5 results
|